Theta_e
315 319 321 322 322 321 320 319 320 322 323 325 328 330 327 326 325 325 325 317 310 314 321 318 316 316 315 316 313 310 310 309 309 309 309 311 312 312 312 312 313 313 314 314 312 311 310 310 310 311 311 311 312 311 312 312 311 311 312 313 316 318 320 320 321 321 321 325 326 325 324 323 323 322 321 321 322 322 321 320 320 320 320 320 321 321
316 320 323 323 319 318 318 317 317 320 320 320 322 323 323 324 324 322 321 317 311 314 322 319 316 316 314 314 312 309 309 309 309 309 309 311 312 312 312 312 313 313 313 312 312 311 310 310 310 310 311 311 311 311 311 311 311 311 311 312 313 317 322 323 323 323 323 324 324 322 321 320 320 320 320 319 319 320 320 320 320 320 320 320 321 322
318 321 321 317 313 314 317 316 315 318 317 318 320 319 322 323 321 321 319 316 312 314 323 322 317 317 315 314 312 309 309 311 311 312 312 313 312 312 313 313 313 312 312 312 312 312 310 310 309 310 311 311 311 311 311 311 311 312 312 313 312 314 320 324 324 324 324 322 322 321 320 320 319 318 319 319 318 320 320 319 320 320 320 321 321 321
322 325 320 312 311 316 319 317 316 316 317 319 319 318 322 322 320 324 322 316 314 315 319 320 317 316 315 314 314 311 310 311 313 313 313 313 313 313 314 314 313 312 313 312 312 312 311 310 309 310 310 311 311 310 311 311 311 313 314 313 314 315 317 320 321 321 321 320 321 322 322 321 319 318 319 320 320 320 319 319 320 320 320 320 320 318
323 322 314 310 314 318 319 319 319 319 320 322 320 319 321 322 321 323 322 319 320 320 317 317 320 321 320 318 318 315 312 311 312 312 313 313 314 314 313 313 313 313 313 313 313 312 312 311 310 310 310 311 311 310 311 310 311 315 315 314 314 317 317 316 318 319 319 320 322 322 321 320 318 318 319 320 319 318 319 320 319 319 319 318 316 313
320 315 312 316 317 317 319 321 322 322 322 324 323 321 319 321 321 321 321 320 324 327 320 317 324 331 331 326 324 321 319 318 314 310 311 314 315 313 313 313 313 313 312 312 312 312 313 312 310 310 310 310 311 311 311 311 310 313 315 313 313 317 318 317 319 320 321 322 322 321 319 317 317 318 319 319 319 318 318 319 319 318 316 313 310 306
318 313 317 325 320 318 320 320 323 321 320 323 325 322 318 318 319 320 321 320 325 328 319 316 322 329 327 324 328 329 327 327 320 312 311 314 315 314 314 316 315 313 313 312 311 311 312 311 310 310 310 310 311 311 311 311 310 310 312 312 313 318 319 318 319 321 321 321 320 320 318 316 316 317 318 318 318 317 317 318 317 314 310 306 304 302
318 316 318 323 323 322 320 321 322 318 320 326 323 320 320 318 319 322 321 322 325 324 321 319 320 323 322 321 326 326 324 325 322 318 315 313 314 316 317 317 317 315 314 313 312 312 311 311 311 311 311 311 310 311 311 311 311 310 311 312 314 319 320 319 319 320 320 319 319 319 317 316 317 317 317 317 317 317 317 316 312 308 304 302 300 300
316 321 319 319 322 321 322 327 324 317 322 326 318 317 320 320 322 324 323 323 321 320 325 326 319 320 325 325 325 322 321 323 323 321 319 315 315 316 317 318 318 316 315 313 313 312 312 312 311 311 311 310 310 311 311 311 311 311 312 313 314 317 319 317 316 318 319 318 317 316 316 317 317 317 317 316 317 317 315 311 306 303 301 300 299 298
314 317 316 317 321 320 325 327 320 318 321 317 313 317 320 321 324 325 326 326 323 321 325 325 321 321 325 326 326 322 322 325 322 321 319 314 315 316 317 318 317 316 314 312 312 312 312 312 311 310 310 310 310 311 311 311 311 311 313 314 314 316 316 315 315 317 317 316 315 315 316 317 316 316 317 316 316 314 310 305 302 301 300 299 298 298
313 312 312 316 318 316 320 318 312 315 316 312 318 326 326 326 327 327 326 324 324 325 324 323 322 322 324 326 328 323 324 328 323 322 323 317 315 317 318 318 317 316 315 313 311 310 310 310 309 309 309 309 310 311 311 310 311 312 313 314 314 315 316 314 315 316 316 314 315 315 317 316 315 316 316 316 315 311 305 302 301 300 299 298 298 298
315 315 314 315 314 313 317 317 312 312 311 315 329 331 326 328 327 325 326 324 324 327 324 322 319 320 323 326 327 323 324 327 323 323 328 322 317 318 318 317 317 316 315 313 311 310 309 309 309 309 309 309 309 310 311 310 311 312 314 314 313 315 316 315 313 314 314 314 315 316 315 314 314 315 316 316 313 307 303 301 300 299 299 298 298 297
318 321 316 313 312 313 320 323 317 314 313 319 329 326 324 327 325 325 327 324 324 323 319 317 318 319 321 321 322 322 323 323 318 316 319 317 315 317 317 316 316 315 314 313 312 311 310 310 309 309 309 309 309 310 310 310 311 312 314 314 314 315 316 315 312 313 314 314 315 315 314 314 315 315 316 315 310 304 302 301 300 300 299 298 298 298
321 321 317 316 315 314 319 322 320 319 318 319 323 324 325 326 327 331 328 322 323 322 315 313 317 321 322 322 321 320 319 319 316 313 314 313 314 315 315 315 315 315 315 314 313 312 312 311 310 309 309 309 309 310 311 310 311 312 313 313 314 314 313 313 312 313 313 313 314 315 314 313 314 315 315 312 306 302 301 300 300 300 299 299 299 298
320 320 319 318 318 316 317 318 321 323 318 318 321 322 324 327 330 333 330 326 326 325 319 314 319 326 328 328 322 314 312 314 315 316 316 315 315 314 313 313 314 314 315 314 314 313 312 311 311 310 309 309 309 310 311 311 311 312 312 313 313 312 312 312 313 313 313 313 313 313 313 313 313 313 312 308 303 301 301 300 300 299 299 298 298 298
317 322 323 317 314 316 317 315 318 321 319 318 319 321 323 325 325 324 324 323 323 324 323 318 321 326 325 324 319 312 313 314 312 312 314 315 315 313 313 313 313 313 314 314 314 314 313 311 310 310 309 309 309 309 310 311 310 311 311 312 312 311 312 313 313 312 313 313 313 312 313 313 312 311 309 305 302 300 300 299 299 299 298 298 298 298
319 323 320 313 313 314 314 315 314 317 320 318 317 320 320 318 320 322 321 317 316 320 323 321 323 325 323 322 320 317 319 318 314 312 312 313 314 312 313 315 313 313 314 314 314 313 313 312 310 310 309 309 309 309 310 311 310 310 310 311 311 311 312 313 313 313 312 312 313 312 313 312 310 308 305 303 301 299 299 298 298 298 297 297 297 297
321 323 318 314 317 313 309 313 313 311 316 320 321 320 317 316 322 325 324 323 322 323 324 322 323 325 325 325 324 319 320 320 319 316 311 311 313 312 315 317 314 313 313 313 314 313 312 312 310 310 309 309 309 309 309 310 310 310 309 310 311 311 311 312 313 313 312 312 312 313 313 311 308 305 303 301 300 299 298 298 297 297 297 297 297 297
320 321 320 314 317 314 310 315 317 312 312 317 320 318 318 323 325 323 323 327 327 326 326 323 320 322 322 323 323 321 324 328 325 320 317 314 312 312 317 318 314 312 313 313 313 313 313 312 311 310 309 309 308 308 309 310 310 310 310 310 310 310 311 311 312 313 312 312 312 312 312 309 305 303 301 300 299 298 298 297 297 297 297 297 297 297
319 319 322 314 313 314 314 316 321 318 312 313 315 315 318 323 323 322 322 323 325 326 327 325 322 323 322 322 324 322 324 328 326 327 327 317 312 315 319 319 315 313 313 313 313 314 313 313 312 310 309 309 309 308 309 309 310 310 310 309 309 310 311 311 311 312 312 312 312 312 310 306 303 302 300 299 298 297 297 297 297 297 297 297 297 296
320 318 320 316 312 315 318 318 319 319 316 315 318 317 317 318 319 322 321 320 325 326 327 327 324 325 325 322 323 323 324 325 325 329 326 315 314 319 320 318 316 314 313 313 313 313 313 313 312 310 309 308 308 308 308 309 309 310 310 309 309 310 311 311 311 312 312 312 312 311 308 304 302 301 299 298 297 297 297 296 296 296 296 296 296 296
320 320 322 320 316 317 320 318 315 317 317 317 318 318 318 317 319 321 320 319 321 322 327 328 323 324 329 323 320 324 329 325 320 320 318 315 316 320 320 318 317 315 314 313 312 312 312 312 312 311 309 308 308 308 308 308 309 310 310 310 309 309 310 310 310 311 312 312 311 309 307 303 301 300 298 297 297 296 296 296 296 296 296 296 296 296
319 324 324 322 319 318 318 314 310 313 317 316 317 319 318 317 319 322 323 322 320 320 322 322 322 323 325 323 321 320 320 316 311 311 312 315 317 319 318 318 317 316 315 313 312 312 311 312 312 311 310 309 308 308 307 307 308 309 310 310 309 309 309 309 310 311 312 311 310 308 306 302 301 299 297 296 296 296 296 296 296 296 296 296 296 295
318 322 322 321 322 320 319 315 310 310 314 315 316 319 318 317 319 322 324 322 323 323 321 320 323 322 318 320 315 308 307 309 309 310 311 313 317 319 318 318 318 316 315 314 313 312 310 311 311 310 310 309 308 308 307 307 307 308 309 309 309 309 308 308 309 310 311 311 309 308 305 302 300 299 297 296 296 295 295 295 295 295 295 295 295 295
318 321 322 322 324 323 321 320 316 313 314 317 319 319 318 318 318 319 320 320 322 325 323 322 324 321 319 321 315 309 312 313 309 310 311 312 316 319 318 317 317 317 317 316 314 312 311 311 311 311 310 309 309 308 307 307 307 307 308 309 309 309 308 308 309 310 311 311 309 307 305 302 300 298 297 296 295 295 295 295 295 295 295 295 295 295
318 321 321 321 322 322 321 322 322 317 314 317 321 319 317 318 318 318 319 320 321 323 321 321 322 320 319 319 317 317 320 319 313 312 313 314 316 318 318 318 317 317 318 317 315 313 312 311 311 311 311 310 309 308 307 307 306 306 307 308 309 309 308 308 309 309 311 311 309 308 306 303 300 298 297 296 295 295 295 295 295 295 295 295 294 295
322 321 319 319 321 321 320 321 321 320 317 317 319 318 316 316 316 317 319 320 321 323 321 320 320 321 320 318 320 321 323 326 320 312 312 315 317 318 318 317 317 318 318 317 316 315 313 312 311 311 310 310 309 308 307 307 307 306 306 307 308 309 309 309 309 309 310 311 310 308 306 304 301 298 297 295 295 294 294 294 294 294 294 294 294 294
325 322 318 320 321 319 320 321 319 320 319 319 318 317 316 316 315 317 319 319 322 323 323 321 320 321 320 318 321 323 325 328 322 312 312 316 317 317 319 317 317 318 318 318 316 316 316 315 313 311 310 310 309 308 307 307 307 306 306 306 307 308 309 309 309 310 310 311 311 309 306 304 301 299 297 295 294 294 294 294 294 294 294 294 294 294
324 322 319 321 320 319 319 320 320 321 320 319 319 318 317 316 315 317 317 318 320 321 321 321 322 322 320 318 320 321 319 320 319 314 315 317 316 317 317 317 317 317 317 317 317 317 317 316 315 313 311 310 309 308 307 307 307 306 306 305 305 307 309 309 310 311 311 311 311 310 307 304 301 299 297 295 294 294 294 294 294 294 294 294 294 294
320 323 323 321 320 320 319 319 321 321 319 319 319 318 317 316 315 316 317 317 318 319 320 320 322 321 319 318 319 319 316 315 315 315 315 315 316 316 316 316 317 317 317 318 318 317 317 316 315 312 310 310 309 309 308 307 307 306 306 305 305 306 308 309 310 310 310 311 311 310 307 304 301 300 298 296 294 294 294 293 294 294 293 293 294 293
315 321 323 321 320 321 319 319 321 320 319 319 319 318 317 317 316 316 316 317 317 318 318 319 320 320 317 316 317 316 315 314 315 314 314 315 315 315 316 316 316 317 317 317 318 318 317 316 314 312 311 311 310 309 308 307 306 306 305 305 305 304 306 308 309 309 310 310 310 310 307 304 301 299 298 296 295 293 293 293 293 293 293 293 293 293
315 318 320 320 321 321 319 321 321 318 317 318 318 319 318 316 316 315 315 316 316 317 318 318 319 319 317 316 316 315 314 313 313 313 314 314 315 314 314 315 316 317 317 317 318 318 317 317 315 313 313 312 310 309 309 308 306 306 305 305 304 303 304 306 308 309 309 309 310 310 307 304 301 299 297 296 295 294 293 293 293 293 293 293 293 293
315 317 319 320 321 321 320 321 320 317 318 319 319 319 317 316 316 315 315 315 315 316 318 318 318 317 317 317 317 317 317 314 312 312 314 315 314 314 314 315 316 316 316 317 317 317 317 316 315 314 313 312 311 310 309 308 307 306 306 305 303 303 303 304 306 308 308 308 309 309 307 304 301 299 298 296 295 294 293 293 293 293 293 293 293 292
314 317 317 317 320 320 318 318 317 318 321 322 321 321 319 317 316 315 315 315 314 315 316 317 317 317 317 317 317 317 317 316 313 313 314 314 314 314 314 315 315 316 316 316 316 316 316 315 315 314 313 311 310 308 307 307 306 305 304 303 303 303 302 303 305 307 307 307 307 306 305 303 301 299 297 296 295 294 294 293 293 292 293 293 292 292
313 315 316 316 318 319 317 316 318 321 321 321 322 320 319 317 316 316 316 315 314 314 314 315 316 316 316 315 315 314 314 314 314 313 313 313 314 314 315 315 315 315 315 316 316 316 316 315 315 313 311 310 309 307 306 305 304 304 303 302 301 301 301 302 303 305 306 307 306 305 304 301 300 299 297 296 295 294 294 293 292 293 293 293 292 292
314 315 315 315 316 317 317 318 320 321 319 320 320 315 314 317 318 317 318 317 315 314 315 314 314 314 314 313 313 314 313 312 312 312 312 314 314 314 314 314 314 314 314 315 315 314 314 313 313 312 310 309 308 306 306 305 304 303 302 301 300 300 300 301 301 302 304 305 305 304 302 301 299 298 297 296 295 295 294 293 293 293 293 293 292 292
316 315 315 315 316 316 318 319 320 320 319 320 321 315 314 318 320 318 319 319 316 314 314 314 314 314 314 312 312 313 312 311 312 312 312 313 313 313 313 313 313 313 313 314 313 312 312 311 310 309 308 307 306 306 305 304 303 302 301 300 300 299 299 299 300 301 302 303 303 303 302 301 300 299 298 297 295 294 294 295 295 294 293 292 292 291
316 315 314 316 316 315 318 319 319 320 320 320 321 318 314 314 316 317 319 320 318 316 313 313 315 315 314 313 312 310 310 312 314 313 312 312 313 313 313 313 313 312 312 312 311 310 310 309 308 307 306 306 305 304 304 303 302 301 300 300 299 299 298 299 299 300 301 301 302 301 301 300 299 298 298 297 296 296 296 297 297 295 293 292 291 291
314 314 313 315 316 315 317 319 319 321 320 319 321 317 310 309 312 314 317 320 319 314 311 313 315 315 313 311 310 309 312 315 315 313 311 312 312 312 313 312 312 311 310 310 309 309 308 308 307 306 306 305 304 304 303 302 301 300 300 299 299 298 298 298 299 299 299 299 299 299 299 298 298 298 298 298 298 298 298 297 296 295 293 292 291 291
312 313 313 315 317 316 316 318 319 319 319 319 318 311 306 308 312 315 319 321 315 308 308 311 313 313 311 309 309 311 314 315 315 312 310 311 311 311 311 311 310 309 308 308 309 308 308 308 307 307 306 305 305 304 303 302 301 300 300 299 298 298 299 299 298 298 298 297 297 297 297 297 298 298 298 298 298 297 297 296 295 294 293 291 291 291
312 313 313 315 317 317 317 318 318 318 320 320 314 306 304 309 314 317 321 318 309 304 306 310 310 310 310 308 309 312 313 312 312 310 309 310 311 310 309 308 308 308 308 309 309 309 309 309 308 307 307 306 305 305 304 303 302 301 300 300 300 301 301 300 299 299 298 298 298 298 298 298 298 298 297 297 296 295 295 294 293 292 291 291 290 289
313 314 313 315 316 317 317 318 318 318 318 315 309 304 305 313 319 318 315 310 306 306 307 308 309 309 309 309 309 311 311 310 309 309 309 309 308 308 308 308 309 309 309 310 310 309 309 309 308 308 307 307 306 306 305 305 304 303 303 303 303 303 303 302 301 300 300 299 299 298 298 297 297 296 296 295 294 294 293 292 292 291 290 290 290 289
313 314 314 314 316 317 317 317 318 319 314 308 307 306 308 314 318 313 307 305 306 307 307 307 307 308 309 309 308 309 308 308 308 308 307 307 307 308 309 309 309 310 309 310 309 308 308 308 308 308 307 307 306 306 306 305 305 305 305 304 304 303 302 301 301 300 299 299 298 297 297 296 296 295 294 294 293 293 292 292 291 291 290 290 290 289
313 314 315 315 314 315 317 317 318 317 310 307 310 311 310 311 311 308 306 305 304 305 306 306 306 307 308 308 308 307 307 307 307 307 307 307 307 308 309 308 309 309 309 308 308 307 307 308 308 307 307 306 306 306 305 305 305 304 304 302 301 301 300 299 299 298 298 297 297 296 296 296 295 295 294 293 293 292 292 291 291 291 290 290 290 289
314 312 313 315 314 314 316 316 313 310 306 306 308 309 308 308 307 306 307 307 305 305 305 305 306 307 307 307 307 307 307 307 308 307 307 307 308 308 309 308 308 308 307 307 307 306 305 306 305 305 305 305 304 304 303 302 302 301 300 299 298 298 298 297 297 297 297 297 296 296 296 295 295 294 294 293 293 292 292 292 291 291 291 290 290 290
310 306 309 314 314 312 312 310 307 305 304 305 305 305 306 307 307 306 306 306 306 305 305 305 306 307 307 307 307 306 307 307 307 307 307 307 307 308 308 308 307 306 305 305 304 303 302 301 301 301 301 301 301 300 299 298 298 297 297 296 296 296 295 295 295 295 295 294 294 294 294 294 294 293 293 293 293 293 292 292 292 292 291 291 291 291
307 304 307 313 314 314 314 311 307 305 304 303 303 303 303 305 306 305 306 306 305 304 304 304 305 306 306 306 306 306 306 306 306 307 306 306 307 306 306 305 304 303 302 301 300 299 298 298 298 297 297 297 297 296 296 295 295 294 294 293 293 293 293 292 292 292 292 292 292 292 292 292 291 291 291 291 291 291 291 291 291 291 291 291 291 291
309 306 308 313 312 312 311 306 301 300 301 301 302 303 302 303 305 305 305 304 303 302 302 303 304 305 306 305 304 305 304 303 303 304 304 304 304 303 302 302 301 299 299 298 297 297 296 296 296 295 295 295 294 294 294 293 293 292 292 292 292 292 291 291 291 291 291 291 291 291 291 291 291 291 291 290 290 290 290 290 290 290 290 290 290 290
307 307 309 312 311 308 307 303 299 301 303 302 301 302 302 303 304 304 303 302 301 301 301 302 303 304 305 304 304 304 303 301 300 300 301 301 300 300 300 299 298 297 297 296 295 295 294 294 294 294 293 293 293 293 292 292 292 292 291 291 291 291 291 291 291 291 291 291 291 291 291 290 290 290 290 290 290 290 290 290 290 290 290 290 290 290
305 309 309 309 309 310 310 306 303 306 310 306 302 302 303 303 303 302 301 300 300 300 300 300 300 301 302 303 303 303 302 301 299 298 298 298 298 298 297 297 296 296 295 294 294 294 293 293 293 293 293 292 292 292 292 292 292 291 291 292 291 291 291 291 291 291 291 291 291 291 291 291 290 290 290 290 290 290 290 290 290 290 290 290 289 289
306 309 308 308 310 310 308 305 303 306 310 308 305 305 304 302 301 301 300 300 300 300 300 300 299 299 300 300 301 301 301 300 298 297 297 297 296 296 296 296 295 295 294 294 293 293 293 293 292 292 292 292 292 292 292 292 292 292 292 292 291 291 291 291 291 291 291 291 291 291 291 291 291 291 290 290 290 290 290 290 290 290 290 290 289 289
Wind_Speed
4 3 2 5 7 8 9 9 7 5 6 5 5 4 4 4 5 5 5 6 2 4 6 8 8 11 12 11 14 12 12 18 23 24 27 30 32 33 35 36 37 36 34 31 31 31 30 30 30 29 26 24 23 20 19 18 18 19 21 22 23 22 23 24 23 22 23 25 26 25 23 22 21 21 19 18 18 16 15 14 14 13 13 12 11 11
4 4 7 10 9 8 8 7 5 5 5 4 5 3 3 4 6 7 4 5 0 4 6 5 6 11 12 12 16 12 8 15 25 26 30 34 35 36 37 38 38 36 35 34 34 33 32 32 31 30 28 27 24 22 21 20 19 20 21 22 24 24 25 25 25 24 25 26 25 24 23 22 20 19 19 18 17 16 15 15 14 14 13 13 12 12
2 4 12 10 5 6 3 4 6 4 2 2 3 2 3 3 4 6 4 4 0 4 4 3 4 10 13 11 14 16 14 21 30 31 34 36 34 37 39 40 39 37 37 38 37 36 35 34 33 32 31 28 26 22 22 21 20 21 22 23 24 25 27 27 26 27 27 25 24 23 23 21 19 17 17 16 16 16 16 16 15 15 14 14 14 13
2 6 11 8 9 8 3 4 6 3 1 2 3 3 4 3 2 4 4 4 0 2 2 3 4 9 12 8 11 20 23 26 32 32 35 36 35 38 39 39 39 39 40 40 39 38 37 37 36 35 33 30 27 25 24 23 23 23 24 24 24 25 28 29 28 28 26 24 24 23 22 20 18 17 17 18 17 18 18 17 18 17 16 15 14 13
6 6 3 7 9 8 5 4 6 5 3 4 5 6 5 4 6 6 4 4 3 3 2 2 5 7 9 7 8 12 13 19 28 27 31 38 39 39 38 37 38 39 40 40 40 39 38 39 39 37 35 31 29 28 27 25 25 25 26 25 25 26 27 28 28 26 26 26 26 25 23 21 20 19 21 21 21 21 20 20 19 18 17 15 14 14
8 5 4 8 5 6 7 4 5 7 4 5 5 10 10 9 8 6 2 4 4 5 3 2 4 6 5 5 7 6 4 10 17 17 25 37 37 36 37 39 40 38 39 39 39 39 39 40 40 38 36 34 32 30 28 27 25 27 28 27 26 28 27 25 25 26 27 28 27 25 24 22 22 24 24 24 23 22 22 21 19 18 17 16 17 18
5 4 6 7 5 7 6 4 6 7 5 3 5 9 11 8 6 4 2 2 0 4 3 2 3 6 7 6 7 5 5 10 11 10 20 32 31 31 35 37 38 37 38 39 38 39 39 40 41 40 39 36 34 31 29 27 25 26 28 27 26 28 28 25 25 27 29 27 24 23 23 22 23 25 25 25 24 23 22 21 19 19 20 21 21 21
4 5 4 6 6 6 5 4 6 8 8 3 5 5 8 7 7 7 6 4 3 3 4 1 3 4 7 7 5 3 6 10 12 12 17 26 29 30 33 35 35 36 37 38 39 39 40 41 41 41 40 37 34 32 30 29 26 25 26 26 26 27 27 26 26 27 28 26 25 24 23 23 23 23 25 26 25 24 23 22 21 23 24 24 22 21
3 7 7 7 5 4 6 5 7 11 5 5 3 6 6 6 6 4 5 3 1 3 5 5 2 3 7 6 5 3 4 9 13 13 14 22 28 29 32 34 34 34 34 35 37 38 39 40 41 40 39 36 34 33 31 29 27 25 26 26 27 28 28 27 27 28 29 29 28 26 25 25 24 24 26 26 26 25 24 24 26 27 26 25 23 21
1 4 7 8 6 6 5 2 8 12 5 4 6 7 5 5 5 4 5 3 2 2 8 8 4 3 6 4 3 2 2 8 12 11 12 18 23 23 23 25 26 28 30 31 34 35 36 38 38 39 38 35 34 33 32 29 27 26 28 28 28 30 30 28 29 30 30 29 27 25 27 26 25 27 29 28 28 27 27 28 29 29 27 25 24 22
2 1 2 4 4 5 5 3 2 7 6 8 7 6 6 6 5 3 3 3 2 3 9 9 8 6 6 3 5 4 4 7 8 8 10 14 18 16 14 15 17 19 23 26 30 32 34 35 36 37 37 36 34 34 32 30 29 28 29 30 30 30 31 29 30 30 29 27 26 27 28 26 26 29 31 30 30 31 32 33 31 29 27 26 24 22
4 1 1 3 4 6 8 5 3 2 6 7 4 5 4 4 4 4 4 3 1 6 6 4 5 7 7 6 5 6 6 7 8 8 9 11 15 14 9 12 14 15 17 21 26 30 33 34 36 38 38 37 36 35 33 32 31 30 31 31 30 32 33 31 30 30 29 28 28 29 27 26 27 29 31 32 33 34 36 35 32 30 29 27 25 23
2 4 3 1 3 7 7 4 4 3 2 4 4 6 4 3 3 3 3 0 3 7 4 1 3 4 8 9 8 9 10 11 11 13 13 14 19 19 12 11 12 13 15 18 22 27 31 34 36 38 39 39 38 37 36 34 33 33 34 33 32 34 35 33 31 31 31 30 30 30 28 26 27 29 30 31 33 36 36 34 32 30 28 27 25 23
3 6 2 1 3 8 9 6 3 1 4 5 5 6 5 2 0 3 4 2 4 6 3 1 2 3 5 6 11 14 15 18 18 20 22 23 26 25 19 15 15 16 17 18 20 24 29 32 35 38 40 41 40 39 37 36 35 36 36 36 35 36 36 34 33 32 32 31 31 31 29 28 28 29 30 32 35 36 35 33 30 28 26 25 24 22
5 6 5 6 4 10 12 8 6 6 5 5 4 5 5 5 5 4 4 4 5 4 4 2 2 4 3 3 8 11 14 19 24 27 30 32 33 29 25 23 22 22 22 22 22 24 27 30 33 37 39 41 41 40 39 38 38 38 39 38 37 36 35 34 34 34 34 33 32 32 31 29 29 29 30 33 36 36 33 31 29 27 25 24 23 22
5 7 6 3 3 12 12 6 7 8 3 3 2 4 4 6 5 2 3 5 2 3 4 3 3 5 4 5 8 8 10 14 19 24 27 32 32 26 26 27 25 23 23 24 25 25 27 29 32 36 39 41 42 41 41 40 39 40 40 40 38 37 36 35 36 35 35 34 34 33 32 31 30 30 33 36 38 35 32 31 29 27 25 24 23 21
4 5 4 1 1 5 6 5 6 4 4 2 3 4 3 4 6 1 3 1 3 3 5 3 5 5 3 7 8 6 9 11 11 15 20 26 25 21 25 28 25 23 21 22 24 25 27 29 32 35 38 41 42 42 42 41 40 40 40 40 40 38 37 37 37 37 36 36 36 35 33 32 32 33 36 38 38 35 33 31 28 27 26 25 23 22
5 3 4 2 2 3 1 5 4 3 4 5 4 6 2 2 2 2 2 3 3 4 5 2 5 4 1 5 5 0 7 11 11 12 15 21 22 22 28 31 27 22 20 20 22 24 27 29 31 34 37 40 41 42 42 41 40 40 40 40 41 40 40 40 39 38 38 37 37 36 34 34 34 35 38 38 37 35 33 32 30 29 27 26 24 22
5 2 4 1 2 3 2 4 2 4 2 4 4 5 4 2 1 2 2 2 1 3 5 3 4 4 5 6 3 3 8 10 11 11 10 15 19 23 30 31 27 22 20 21 22 23 26 28 30 33 35 38 40 41 41 40 40 40 41 41 41 41 40 40 40 39 39 38 37 36 35 35 36 37 39 39 37 35 34 33 32 30 28 26 25 24
3 3 3 1 1 1 2 2 4 1 2 3 2 3 2 2 4 3 3 3 3 3 3 3 3 4 6 7 7 10 11 9 9 9 8 12 19 24 27 27 25 23 21 21 22 22 24 26 29 31 33 36 38 39 41 41 41 41 41 41 42 42 41 41 41 40 39 38 38 37 37 37 38 39 40 39 38 37 35 34 32 31 29 27 26 25
2 4 4 2 2 1 2 4 8 10 7 4 4 5 3 1 2 1 1 2 4 3 2 3 6 6 5 5 9 11 10 10 10 9 7 12 19 21 22 23 24 22 20 20 21 21 23 24 27 30 32 34 36 38 40 41 42 42 42 42 42 42 43 43 43 41 40 39 39 39 38 39 40 41 41 40 39 37 36 35 33 31 29 28 27 25
3 4 4 2 1 4 5 4 6 10 9 7 7 9 9 7 4 3 3 1 2 2 4 2 7 9 5 4 7 8 7 8 9 8 8 14 20 19 19 21 22 20 19 18 19 20 21 23 26 28 31 33 35 37 40 41 42 43 44 44 42 42 44 44 44 43 41 40 40 39 39 40 41 42 42 41 40 39 37 36 34 32 30 29 28 26
5 3 4 3 4 6 6 3 2 4 3 2 3 5 7 7 6 6 5 3 2 2 3 4 4 10 3 4 5 5 5 5 6 9 11 17 20 19 20 20 21 21 18 17 17 18 19 21 24 27 30 32 34 36 39 40 42 44 45 45 44 43 44 44 43 42 41 40 40 39 40 41 43 43 43 42 41 40 39 37 35 33 31 30 28 26
4 3 4 2 2 3 4 4 2 1 2 1 2 2 5 7 7 5 4 4 4 4 4 4 5 9 2 1 2 5 6 5 7 11 13 17 20 18 19 20 19 20 19 18 17 17 17 20 24 28 30 32 34 36 38 40 41 43 45 47 46 45 44 44 43 42 41 41 40 40 41 43 44 44 44 44 43 42 40 38 36 34 32 31 29 28
7 4 5 4 1 3 4 3 2 0 2 3 3 3 7 10 8 3 1 2 2 8 9 5 8 9 2 3 3 3 4 5 9 12 11 14 18 17 17 19 18 17 19 19 19 18 18 20 23 27 30 32 34 35 37 39 41 43 46 48 48 46 44 44 44 43 43 42 41 41 43 45 46 46 45 45 45 43 41 39 37 35 34 32 31 29
10 5 7 8 8 9 8 7 6 4 3 2 4 7 10 12 12 6 2 3 6 9 8 7 11 9 1 2 4 3 3 5 10 10 10 14 18 16 17 19 17 16 19 22 22 20 20 21 23 26 29 32 34 34 36 38 40 43 45 47 48 47 46 45 46 45 44 44 43 43 44 46 48 48 47 46 46 44 42 40 38 37 35 33 32 31
4 4 11 13 13 15 12 6 5 9 8 7 10 12 12 12 13 10 5 7 8 3 4 10 14 13 9 5 3 5 4 5 8 8 10 15 16 15 18 19 17 18 21 24 23 22 23 24 25 26 27 31 34 34 35 37 39 42 45 47 49 48 47 46 46 47 46 45 45 44 45 47 49 49 49 48 46 45 43 41 39 37 36 34 33 32
2 3 13 15 16 17 14 8 9 12 13 14 15 14 14 13 13 12 12 15 8 3 8 15 10 12 20 12 7 8 6 4 7 11 16 18 17 18 21 22 22 22 23 25 25 26 27 28 28 28 27 30 33 35 35 36 39 41 44 46 48 49 49 48 48 48 48 47 47 46 46 47 48 49 49 49 47 45 44 42 40 38 36 35 34 33
2 5 10 12 14 17 16 10 10 11 11 13 16 17 17 16 16 18 21 21 11 7 16 17 10 13 24 14 8 9 9 10 16 20 22 23 24 27 27 27 27 25 25 27 30 31 30 30 31 30 29 30 32 34 36 37 38 40 43 45 47 49 50 50 49 49 49 49 48 47 46 47 48 48 49 50 48 46 45 43 41 39 37 36 35 34
3 4 5 8 10 15 17 10 9 11 9 9 14 17 18 19 22 24 24 22 16 14 20 18 9 16 20 8 5 10 13 19 23 22 22 24 27 30 29 29 29 29 29 31 33 35 35 33 33 31 29 30 32 34 36 37 38 40 43 45 47 49 50 51 51 51 50 50 49 47 46 47 47 48 49 50 48 47 45 43 42 40 39 38 37 35
3 3 2 4 5 12 13 6 7 10 9 9 11 12 15 20 22 23 21 18 15 15 20 17 14 18 13 3 8 16 15 17 18 18 22 25 27 29 28 29 31 31 32 34 35 36 36 35 35 32 30 31 31 32 34 36 38 40 42 44 46 48 50 51 51 51 51 50 48 47 46 47 47 47 49 50 48 47 46 44 43 42 40 39 38 37
3 3 2 4 5 12 9 6 8 7 5 6 9 11 17 18 16 16 15 14 14 16 18 15 14 18 11 4 9 14 10 10 14 19 25 29 29 28 28 30 31 31 33 34 34 35 36 37 36 33 30 30 30 31 31 33 37 39 42 44 45 47 48 50 51 51 51 49 47 46 46 46 47 47 48 49 48 47 46 45 44 43 41 40 39 38
5 4 2 4 6 11 5 7 8 5 3 7 12 16 20 14 10 11 12 15 17 15 13 12 14 18 15 9 10 10 7 9 15 22 28 30 29 27 27 29 31 32 33 33 33 35 36 36 34 31 30 29 30 30 29 31 35 37 39 41 43 45 47 49 50 49 49 48 47 46 46 46 47 47 47 48 47 46 46 46 45 44 41 41 40 40
6 7 5 4 4 7 4 7 6 5 8 10 8 11 15 14 13 14 15 16 16 13 12 13 15 17 16 12 11 11 12 16 23 29 28 25 24 25 27 31 31 31 31 31 32 33 33 31 31 31 31 29 28 27 27 30 32 33 36 38 40 43 45 46 48 48 48 47 46 46 45 46 47 46 47 47 47 46 46 46 45 43 42 42 42 42
6 7 5 3 2 4 4 6 4 8 10 7 2 2 9 15 18 18 17 17 16 15 17 18 18 19 18 16 16 17 22 27 29 28 23 20 23 27 29 32 31 29 29 29 29 29 29 29 31 30 28 25 24 24 26 28 29 30 33 36 37 39 41 43 45 46 46 46 45 44 45 46 46 46 46 46 46 46 46 46 44 43 43 44 44 44
8 7 3 3 3 2 3 6 7 5 3 4 4 2 2 6 11 12 12 16 18 18 18 19 22 22 19 22 26 27 28 27 26 26 26 27 31 32 31 31 29 27 27 26 26 28 28 27 26 22 19 17 18 20 22 23 25 27 30 31 32 34 37 39 42 44 44 44 44 44 45 45 44 44 44 44 45 45 45 44 43 44 45 45 45 45
9 7 4 4 5 4 4 6 4 4 6 8 6 4 4 7 10 11 9 14 17 18 17 17 20 21 19 25 33 29 21 17 18 23 29 31 31 29 29 30 30 28 27 26 26 25 23 20 17 14 12 11 12 14 16 18 20 22 24 26 28 30 33 36 38 40 40 40 40 41 41 41 42 42 42 43 44 44 43 43 44 45 46 46 46 46
9 8 8 7 5 4 5 6 3 3 9 10 6 7 11 13 13 12 8 10 11 14 19 18 17 19 18 22 26 19 9 8 10 14 18 19 18 17 18 23 27 27 26 24 22 18 15 13 11 8 6 6 7 8 10 12 15 17 19 22 24 26 29 31 33 34 35 35 35 35 36 38 39 39 40 40 41 42 42 43 44 44 45 46 47 47
11 9 9 8 5 5 6 6 5 6 8 6 5 7 11 15 14 11 3 8 6 11 21 21 17 19 20 18 15 7 2 5 10 10 10 10 9 9 12 17 21 22 20 17 13 10 9 8 7 6 5 5 5 5 6 8 10 12 14 16 19 22 24 24 25 26 27 27 28 29 31 32 33 34 35 36 37 39 41 42 42 43 44 45 47 47
10 7 7 9 8 7 8 6 4 5 6 5 5 5 8 15 16 11 1 8 5 9 20 23 19 20 18 14 9 7 6 9 10 9 8 7 8 9 12 13 14 13 10 9 9 9 8 8 8 7 7 6 6 5 6 6 7 8 10 12 14 15 15 15 16 17 19 20 22 24 25 26 27 28 29 30 30 32 34 37 39 42 43 45 46 48
6 5 6 9 9 9 10 7 3 4 5 5 5 9 13 14 11 7 6 6 7 9 15 21 22 20 15 13 12 11 14 19 16 13 11 10 9 10 9 9 9 9 9 9 9 8 9 9 9 9 9 9 8 8 8 7 7 7 8 8 8 7 6 8 10 12 14 15 17 18 19 20 21 21 22 22 24 26 29 32 35 38 40 42 44 46
5 4 4 7 8 8 8 6 3 5 5 6 9 12 15 9 5 8 5 7 14 14 12 16 19 16 14 16 18 18 18 17 14 13 11 9 9 10 10 10 11 11 11 11 9 8 9 11 11 11 11 11 10 9 8 8 7 6 6 4 3 2 4 6 7 9 10 11 12 13 13 14 15 16 17 19 21 23 26 27 29 32 33 36 38 41
7 6 5 6 6 4 4 5 5 5 4 16 17 8 6 5 4 6 8 8 12 14 12 13 13 12 12 14 15 16 14 10 9 9 9 11 11 11 12 11 11 12 12 11 11 11 12 12 12 12 11 11 10 8 7 6 5 4 4 3 2 4 6 7 8 9 9 10 11 11 11 12 12 13 14 16 17 19 21 22 24 26 28 30 32 35
5 6 5 4 5 5 4 7 6 2 8 25 21 7 10 12 4 6 10 9 10 13 12 12 11 10 10 10 10 12 12 10 9 10 13 14 12 12 12 12 12 12 12 13 14 14 13 11 11 11 10 10 9 7 7 6 5 5 6 6 6 8 9 10 10 11 11 11 11 11 11 11 11 12 13 13 15 16 18 19 21 23 24 26 28 30
6 7 4 4 5 5 3 6 4 2 13 26 16 4 12 18 9 6 11 12 13 15 12 9 9 10 10 10 10 12 12 10 11 13 14 14 13 13 14 13 13 13 13 14 14 14 13 11 11 11 11 11 10 9 9 8 7 8 9 10 10 10 10 10 11 10 10 11 10 10 11 11 11 11 12 12 13 15 16 17 18 20 21 23 24 26
4 4 2 1 3 2 1 3 4 3 13 24 17 5 11 18 13 10 12 13 14 13 11 9 9 10 12 12 12 13 12 12 13 14 14 14 14 15 15 15 15 15 15 15 16 15 14 13 12 12 12 13 13 12 12 12 12 12 12 11 10 10 9 9 8 8 8 9 8 9 9 9 9 9 9 10 11 12 12 13 15 16 18 20 21 23
2 5 3 2 4 5 4 4 5 5 12 22 19 10 11 17 17 14 13 13 13 12 11 11 10 11 13 13 13 14 14 13 14 15 15 15 16 17 17 17 17 17 15 15 15 15 14 14 14 14 14 15 15 15 15 14 14 13 13 11 10 9 8 7 7 7 7 7 6 6 6 6 6 6 6 7 8 9 10 11 13 15 16 18 19 20
5 9 6 3 4 5 3 3 3 2 7 16 17 13 13 17 18 15 14 14 14 14 13 13 12 13 15 14 14 15 16 15 15 16 17 17 18 18 18 17 17 16 15 15 15 15 16 16 16 16 16 16 16 16 15 14 14 13 12 10 9 8 7 6 6 5 4 4 4 4 4 4 4 5 6 7 8 9 10 12 13 15 16 17 19 20
7 10 6 3 3 2 2 2 2 2 3 11 16 15 16 18 18 18 18 18 17 16 16 16 15 15 16 16 15 15 17 16 15 15 17 17 17 18 18 17 17 17 17 18 18 18 17 16 16 17 16 16 16 15 14 13 12 11 10 9 8 7 6 5 5 4 4 4 4 5 5 6 6 7 8 9 10 11 12 13 15 17 18 18 20 21
6 6 4 3 4 4 6 7 10 5 1 9 20 23 21 20 20 20 21 20 19 17 18 18 18 18 18 17 16 16 16 16 15 14 15 16 17 18 19 19 19 20 20 20 20 19 18 17 16 16 16 15 14 13 12 11 11 10 9 8 8 7 7 7 7 7 7 7 7 8 8 9 9 10 11 11 12 13 14 15 16 18 19 19 20 22
6 6 7 7 5 7 8 13 19 13 3 7 22 29 26 23 22 22 23 22 20 18 18 18 19 20 20 18 17 16 16 16 16 15 15 17 18 19 20 20 21 21 21 20 20 19 19 17 15 14 14 14 13 12 11 10 10 9 9 8 8 8 8 9 9 10 10 11 11 12 12 12 13 13 13 14 14 15 16 17 18 19 20 21 22 22
Wind_Direction
136 130 162 212 213 200 203 199 189 162 133 122 128 141 185 203 264 256 255 285 198 164 244 230 230 253 257 264 269 259 224 223 238 245 245 245 244 243 242 243 243 245 247 247 245 242 237 233 234 235 233 232 232 230 231 229 224 222 218 213 210 207 206 206 210 214 211 207 206 207 212 214 215 220 223 215 208 211 209 200 194 192 192 191 189 187
122 160 223 227 211 193 199 194 155 122 119 98 121 177 245 209 252 256 244 301 188 171 263 251 238 260 257 256 267 259 210 226 237 239 245 246 245 245 244 245 245 245 246 245 243 240 236 232 231 233 232 231 232 230 229 228 223 220 216 214 211 206 204 207 213 214 209 209 212 218 223 223 224 223 218 212 209 210 203 191 187 187 184 182 181 180
98 221 242 230 163 124 135 158 151 148 143 106 122 163 262 241 270 279 276 317 83 179 267 288 257 264 260 254 260 250 228 241 246 243 248 250 247 247 247 247 247 244 243 242 241 239 236 232 230 231 231 230 230 227 228 227 222 218 214 213 211 205 203 204 208 209 210 213 217 223 224 220 218 215 209 210 209 204 195 187 183 181 179 178 180 182
164 248 251 207 146 131 115 122 133 135 192 198 167 170 246 250 264 276 289 319 327 196 267 297 294 274 267 260 256 252 244 249 255 252 255 255 251 252 252 252 250 246 244 242 240 238 235 231 229 229 230 228 226 223 223 224 219 216 214 211 208 204 204 206 208 210 214 218 214 213 214 213 215 212 207 206 202 196 190 186 182 180 179 181 186 192
215 257 251 148 153 164 148 124 136 153 234 242 203 194 221 226 218 232 285 324 333 342 351 330 305 281 267 257 253 261 255 255 259 256 257 257 254 255 255 254 252 249 248 245 241 240 235 232 230 229 228 226 224 224 223 223 218 213 213 212 207 205 207 209 210 213 216 213 206 205 208 213 214 209 204 202 196 189 186 186 183 181 185 187 190 186
250 250 126 121 147 164 152 163 176 172 206 275 228 204 213 216 221 238 317 3 0 327 329 29 297 280 291 273 258 283 307 267 262 253 252 256 255 254 252 252 251 249 248 246 245 243 239 234 230 228 227 225 225 226 224 223 218 212 215 215 208 206 209 209 211 214 212 206 205 209 215 217 211 204 199 197 194 189 186 188 188 188 187 182 177 168
246 213 129 123 143 154 162 210 217 177 158 270 247 206 209 202 201 216 178 100 256 261 280 90 209 268 306 289 254 263 273 265 266 258 255 258 257 253 254 255 252 249 247 244 243 241 238 234 230 228 228 227 226 225 223 222 219 214 215 213 207 207 208 206 208 209 205 203 206 216 226 226 214 203 196 191 193 193 190 192 192 187 177 168 165 161
194 186 125 117 127 136 167 220 220 168 146 237 253 177 176 177 188 197 168 184 235 264 305 18 164 262 290 274 261 262 267 272 273 267 264 262 259 256 257 258 256 253 249 245 241 238 236 233 231 231 231 229 227 224 221 220 219 215 213 208 203 203 203 202 204 206 207 210 215 222 228 223 212 207 199 192 193 194 194 194 188 177 168 163 163 163
159 180 184 164 151 165 193 214 182 157 158 246 221 126 143 156 163 157 138 186 294 25 296 283 140 250 265 263 300 323 265 271 270 263 264 263 262 261 261 261 261 258 253 248 244 241 238 236 233 232 232 228 224 222 221 219 217 213 208 205 203 202 204 206 208 208 211 217 223 226 222 213 208 205 201 197 196 195 193 189 179 171 167 165 165 167
135 192 194 167 168 203 208 228 171 167 187 199 135 94 78 78 81 84 106 132 48 41 256 250 160 229 263 238 268 320 232 253 263 263 263 267 270 270 267 267 265 261 254 248 245 243 242 239 233 229 228 226 223 221 220 217 215 211 206 205 205 205 208 211 209 210 213 217 220 218 211 211 209 203 200 200 198 194 189 183 176 172 170 169 170 171
314 43 178 168 186 186 139 66 157 172 154 134 110 67 48 34 41 41 59 84 47 264 250 237 178 197 267 245 221 231 211 226 246 262 270 273 274 272 273 277 274 267 258 249 243 239 237 235 229 225 224 223 222 220 218 216 214 210 206 206 206 208 210 209 207 210 214 215 213 210 210 216 214 205 202 201 197 191 185 181 177 174 174 173 174 174
336 39 230 211 183 139 105 66 28 92 130 120 89 81 71 348 10 16 0 51 227 248 253 251 162 178 237 255 237 244 248 238 233 244 260 272 272 271 286 295 286 275 262 250 242 236 232 229 224 221 222 221 220 220 218 216 214 209 207 207 207 206 207 208 209 211 214 214 211 210 213 217 215 209 207 204 198 189 183 181 180 177 177 177 176 176
285 234 274 313 193 165 123 80 36 29 101 109 98 111 104 325 354 345 303 118 236 251 262 337 122 184 237 251 252 255 258 249 237 236 244 257 266 271 285 294 290 282 268 253 242 236 233 229 224 221 220 220 219 220 219 216 213 209 208 209 207 206 207 212 215 212 212 214 212 211 213 216 215 213 213 208 199 189 184 184 184 182 181 180 179 179
265 290 291 115 234 196 167 156 167 191 182 163 147 143 145 146 178 270 267 268 264 268 288 266 184 245 266 259 241 236 238 242 247 254 258 263 268 272 276 275 275 277 272 259 247 240 236 232 227 223 220 220 220 219 218 216 213 210 209 210 210 212 214 216 215 212 211 213 213 212 215 216 215 215 214 209 199 190 187 187 188 188 186 184 183 181
218 281 212 181 197 186 185 191 167 138 162 188 155 140 160 161 171 217 220 231 257 285 301 277 201 201 208 257 245 238 246 248 252 259 264 268 271 274 276 272 267 266 265 260 252 245 241 235 230 225 222 221 220 220 218 217 214 211 211 212 212 214 214 212 210 211 211 211 212 213 215 217 216 215 212 205 198 193 190 190 191 191 188 186 185 182
204 262 236 215 161 167 181 187 129 110 145 223 113 121 193 185 167 207 207 182 192 300 296 235 225 215 208 272 271 260 267 258 253 257 261 265 269 272 273 270 266 263 261 257 251 246 241 236 231 227 224 221 220 220 220 218 216 214 212 213 214 213 211 210 210 211 212 212 213 214 216 217 214 211 207 201 198 195 194 193 193 192 188 187 186 185
182 271 281 356 63 174 182 167 136 139 176 164 139 178 209 170 146 175 266 63 84 266 269 199 238 288 312 283 275 252 255 263 264 261 258 260 266 272 272 270 268 263 260 257 253 248 242 237 232 228 225 222 221 220 220 221 220 218 216 215 214 213 211 210 211 213 214 214 214 215 216 215 210 206 204 200 198 197 195 194 193 192 190 188 189 189
168 255 291 118 182 260 168 122 88 50 128 128 183 200 150 79 105 117 246 343 44 253 273 218 234 276 286 274 307 279 232 252 259 255 257 263 266 269 270 271 270 265 261 258 253 247 242 238 234 230 226 224 223 223 223 224 223 221 220 217 215 214 212 211 212 214 216 216 215 216 216 212 207 204 202 201 200 199 197 195 193 193 193 191 191 192
166 223 296 84 186 272 32 111 77 8 82 126 177 180 128 133 215 120 171 233 201 248 285 289 254 241 202 227 271 217 216 233 249 252 256 262 261 262 267 271 272 267 261 255 250 245 242 239 236 232 228 225 224 224 225 225 225 223 221 219 217 217 214 212 213 215 217 217 217 217 215 209 204 202 203 203 202 201 200 198 196 195 195 194 194 195
154 198 266 332 221 293 23 162 183 209 20 53 98 145 122 152 178 166 166 169 172 226 281 309 301 247 218 209 200 212 219 215 236 251 246 249 254 260 267 273 275 272 266 259 253 249 245 242 240 235 231 228 225 225 225 225 226 224 222 221 218 217 215 214 214 216 217 218 217 216 213 207 203 202 204 204 204 204 202 200 199 198 197 198 198 197
133 210 237 338 340 170 194 217 191 179 170 153 163 173 185 138 109 156 205 132 136 168 220 290 291 263 237 204 191 206 216 206 218 231 236 249 254 260 271 278 279 281 278 267 256 251 248 244 242 238 232 229 226 226 226 225 226 226 224 224 220 216 215 215 215 216 218 218 217 214 210 206 203 203 205 206 206 206 204 202 202 201 200 200 200 199
185 202 181 147 222 205 220 242 204 190 184 178 189 191 186 174 147 173 234 203 124 174 184 200 275 268 240 192 199 206 205 207 217 214 228 253 257 264 277 282 286 292 290 279 264 255 250 246 244 240 234 229 226 226 226 226 226 226 225 225 223 218 216 216 216 217 217 218 216 213 209 206 204 204 206 207 207 207 206 205 203 202 202 202 201 201
167 119 156 188 218 218 237 269 208 205 195 156 202 201 183 174 164 172 210 216 167 218 182 128 271 273 252 166 207 238 243 231 221 209 226 252 261 273 281 283 291 297 299 292 276 260 253 248 245 243 238 232 228 227 227 227 226 226 226 226 225 221 218 217 217 218 218 219 217 213 210 208 206 206 207 208 208 208 207 206 205 204 205 204 202 201
138 120 183 220 315 303 303 332 12 71 108 173 254 179 164 189 189 173 191 185 166 208 188 128 256 264 281 61 249 272 278 266 226 215 231 257 266 274 279 281 288 296 302 299 283 267 256 248 244 242 239 235 231 228 228 227 227 226 226 226 226 223 220 218 218 219 220 220 218 215 212 210 209 209 210 210 210 209 208 207 207 206 206 205 204 203
170 185 186 175 295 309 316 314 290 231 141 197 225 192 191 198 188 153 95 124 194 223 189 169 245 246 264 327 303 308 307 286 251 233 235 261 269 272 275 278 284 296 304 300 287 274 261 252 247 244 242 239 235 231 229 228 227 227 226 226 226 224 222 219 218 219 221 221 219 218 215 212 211 211 211 212 212 211 209 208 208 208 207 206 205 205
174 190 181 180 209 222 225 229 216 182 147 191 214 201 204 198 185 188 200 183 228 228 183 189 242 247 284 314 288 317 329 287 270 259 243 249 261 270 272 274 282 295 300 296 289 281 272 263 256 250 245 242 239 234 232 230 228 227 227 227 226 225 224 221 220 220 222 222 221 219 217 215 213 213 213 214 213 212 211 210 210 210 209 208 207 208
154 200 192 193 208 217 225 222 153 132 146 203 216 201 202 203 194 196 209 211 219 217 198 219 233 252 262 234 235 277 263 250 271 274 253 246 254 268 273 275 280 285 288 288 285 282 279 273 265 256 250 245 242 238 235 233 231 229 228 228 226 225 225 223 222 222 223 223 223 221 219 217 216 215 214 215 215 214 212 212 212 212 211 210 210 211
105 208 202 204 212 222 236 221 153 146 169 199 209 201 203 203 193 196 215 221 202 134 249 237 205 242 258 240 215 246 245 246 263 255 251 253 259 269 273 273 274 275 279 281 281 279 279 277 271 264 255 248 243 240 237 235 234 232 231 230 228 226 225 224 223 223 223 225 225 223 221 219 219 218 217 217 217 215 214 214 214 214 213 213 213 215
144 209 208 213 219 230 240 218 169 172 185 196 203 203 203 198 193 202 217 223 202 180 244 241 174 215 252 248 211 220 213 224 242 247 252 257 260 263 265 265 267 270 273 276 278 278 277 277 274 268 261 253 245 241 239 236 235 234 232 231 230 228 226 225 224 224 225 226 227 225 223 221 221 220 219 218 218 217 216 216 216 216 216 216 217 219
182 211 204 204 222 241 244 218 175 191 202 202 207 206 202 198 199 207 216 222 214 213 242 250 223 237 254 252 221 230 224 234 247 254 254 253 254 256 256 257 261 265 268 273 277 277 276 275 273 267 263 258 249 244 242 239 237 235 233 231 230 229 227 226 225 225 225 227 228 227 225 224 223 222 220 219 219 219 218 218 218 218 218 218 220 222
195 209 136 143 214 250 246 202 166 195 207 217 222 217 214 210 207 211 218 220 219 228 244 254 260 260 257 218 249 256 245 244 256 259 254 253 253 253 252 254 257 261 267 272 274 276 276 274 270 266 265 264 256 248 245 244 241 238 235 233 232 230 228 226 226 225 226 228 229 229 228 226 224 223 221 220 220 220 220 220 221 221 221 221 223 224
175 198 72 105 214 247 236 166 167 186 195 229 238 226 221 218 211 211 216 214 209 220 237 245 255 259 251 207 251 262 249 239 250 255 257 260 259 255 253 255 259 263 268 272 273 274 275 273 271 270 270 269 260 251 249 247 243 240 238 235 233 230 228 227 226 226 227 228 229 230 229 228 226 225 223 222 222 222 222 223 224 224 223 224 226 227
159 169 148 138 210 249 237 146 155 153 169 236 239 226 220 213 201 207 220 223 214 210 220 227 236 248 253 246 251 261 247 233 243 249 255 260 263 262 261 262 265 268 271 272 272 273 274 275 276 276 274 271 265 259 254 250 248 246 243 239 235 232 229 228 227 227 227 228 229 230 230 229 227 226 224 224 224 224 224 225 226 227 227 229 230 230
165 175 187 159 196 243 208 123 128 181 214 230 233 218 210 195 190 205 219 223 216 209 220 232 239 249 256 251 246 250 250 249 252 254 255 261 267 270 270 268 269 271 272 272 271 272 275 277 278 277 274 271 268 263 257 252 250 249 245 241 238 235 232 229 228 227 227 228 229 230 230 229 229 227 226 226 226 226 226 227 228 230 232 233 233 234
166 178 182 160 181 220 152 121 165 215 223 240 293 203 201 194 195 207 222 227 219 215 226 239 248 252 254 254 252 254 257 260 262 262 263 266 268 269 270 270 271 271 271 271 271 273 275 275 276 277 277 275 268 260 254 250 248 246 243 241 239 237 234 231 229 228 228 228 229 230 230 230 229 229 228 228 228 229 229 229 230 233 236 237 236 237
171 180 175 163 182 178 142 181 213 234 269 279 290 286 203 175 183 200 230 241 228 218 221 231 242 248 253 258 258 257 261 270 275 274 271 269 268 268 270 272 275 274 272 273 273 274 276 275 275 276 274 270 263 257 254 251 247 245 242 241 240 239 236 232 230 229 228 228 229 230 231 231 231 232 232 231 231 232 231 232 234 237 239 239 239 240
174 179 179 189 199 188 186 214 239 327 301 261 247 223 170 152 164 176 214 245 232 218 217 223 237 246 249 254 256 258 267 285 289 279 273 273 273 273 272 273 275 273 272 274 272 270 269 265 260 256 254 254 255 255 253 250 246 243 242 242 242 240 237 234 232 232 231 232 232 233 234 235 235 235 235 235 235 235 235 237 240 241 241 241 241 242
195 192 190 198 207 187 197 227 234 257 257 250 223 190 181 177 174 168 193 248 241 213 209 214 230 240 241 249 255 257 274 295 283 276 281 286 285 282 275 268 266 267 268 267 264 257 250 239 231 227 230 234 243 249 249 249 247 243 243 243 241 239 236 235 235 235 236 237 237 238 239 240 240 239 239 239 240 241 243 246 247 246 244 243 244 245
209 208 198 201 202 181 197 222 207 215 248 247 193 182 181 175 158 131 163 255 244 196 197 201 219 233 234 240 242 216 159 259 264 270 286 301 298 279 264 260 260 262 260 250 238 222 209 199 186 177 181 190 203 220 230 238 240 239 240 240 239 238 238 238 240 240 241 242 242 242 242 242 242 243 244 246 248 250 253 254 253 250 248 247 247 248
206 203 199 204 204 196 201 212 211 231 246 221 192 191 169 157 140 115 190 251 227 185 191 193 209 228 229 223 208 160 172 224 248 270 281 293 291 269 255 251 250 247 233 210 190 176 166 158 154 154 154 155 160 171 183 198 210 219 228 232 234 237 239 241 243 242 242 243 242 242 243 244 247 250 253 258 260 261 262 260 258 255 252 250 249 250
197 190 194 206 209 205 205 211 234 255 233 204 185 169 149 138 139 163 222 217 170 170 188 194 208 224 220 201 189 195 220 232 244 265 275 275 266 245 226 213 200 183 169 163 159 155 154 151 147 143 141 141 142 142 147 159 171 183 198 210 218 223 224 230 235 236 239 242 243 246 249 252 256 260 263 265 267 266 265 263 261 259 256 254 253 252
182 182 190 206 208 206 210 211 221 253 226 155 138 151 149 143 188 212 197 145 154 166 177 192 206 219 219 210 209 220 234 240 245 255 255 237 216 195 176 167 163 158 155 153 151 153 156 153 147 143 141 138 134 132 132 136 142 154 165 172 172 191 218 232 241 245 246 247 247 249 251 253 255 258 260 261 262 263 263 263 262 260 259 257 256 256
180 172 181 199 192 183 209 197 198 256 193 135 126 133 175 191 216 182 148 133 157 167 169 179 193 203 208 213 215 219 228 234 233 228 207 184 175 166 160 159 159 159 158 158 157 155 153 152 149 145 143 140 137 138 136 138 147 158 161 161 175 205 221 229 232 233 230 229 230 232 236 241 245 249 251 254 256 258 259 259 259 259 259 259 259 259
186 176 179 204 188 167 196 202 196 250 165 153 147 161 206 205 205 153 158 160 164 169 170 175 183 186 190 200 201 197 203 210 205 190 174 167 167 165 163 162 162 164 163 161 159 153 151 156 156 153 156 157 159 164 167 172 187 192 184 184 193 200 205 206 208 210 210 213 216 220 224 228 231 234 239 243 247 251 253 255 256 258 259 260 260 261
203 194 179 194 193 173 197 210 188 143 172 173 171 173 191 195 198 163 169 174 170 173 175 174 179 176 169 176 186 183 185 191 184 175 172 171 170 171 170 167 166 166 162 160 160 157 158 164 164 164 169 170 170 175 175 172 174 172 171 174 180 184 188 190 193 196 199 203 208 211 216 219 222 227 232 236 242 246 249 253 256 257 259 261 262 263
219 208 183 175 190 188 253 210 169 153 183 187 191 192 181 188 190 171 169 173 169 169 168 166 178 179 168 170 179 179 179 183 177 172 174 174 170 171 171 166 163 162 161 161 162 159 158 158 158 161 163 161 159 159 156 152 150 151 155 158 161 164 168 172 177 183 188 196 202 207 214 219 223 228 233 238 245 250 253 257 260 261 262 263 264 265
259 202 180 152 180 190 223 213 180 183 192 190 193 196 182 185 186 176 171 170 167 166 165 163 169 173 167 169 177 177 174 173 171 169 169 169 167 166 164 162 160 159 158 158 155 150 147 146 145 146 147 146 146 144 144 145 143 143 146 148 150 155 160 164 169 176 183 191 199 207 218 227 234 242 251 255 260 265 266 267 268 268 269 270 272 274
197 178 177 201 191 182 211 226 180 183 202 197 198 200 190 186 183 176 171 170 168 165 163 159 160 166 165 164 173 174 166 162 166 167 165 164 164 163 160 160 158 154 150 148 145 141 140 139 138 137 136 137 138 138 139 140 140 141 145 148 151 155 158 161 166 170 176 187 199 213 225 235 242 252 260 265 267 269 270 271 273 274 276 278 280 281
144 156 174 186 164 180 268 233 134 32 272 222 216 209 195 189 184 175 171 170 167 164 160 155 155 162 163 164 171 174 166 161 164 167 166 164 163 160 158 156 152 148 144 142 140 137 136 136 135 134 134 134 136 139 140 140 142 145 147 151 156 157 155 162 169 176 189 200 211 223 227 232 241 248 253 258 263 265 268 271 273 275 277 279 280 280
139 159 175 123 138 221 241 192 169 163 254 223 214 207 196 190 185 176 169 168 167 166 164 159 155 158 161 164 170 175 172 167 165 168 168 166 163 160 157 154 150 146 144 143 141 139 138 136 135 136 139 139 140 145 148 149 154 158 161 167 173 174 177 184 189 196 206 213 219 227 231 234 240 246 250 254 259 263 267 271 273 276 278 279 279 280
183 171 173 162 174 225 224 190 184 188 210 220 210 204 196 190 186 179 173 172 170 169 169 167 162 160 161 163 167 173 175 171 167 169 169 164 161 159 156 153 152 150 149 149 148 145 144 144 143 145 149 152 154 160 166 170 174 180 184 191 196 202 207 211 215 219 223 227 231 235 239 243 246 251 256 261 265 269 272 274 276 278 280 282 282 281